Location: Rounton
(54.4000°N, 1.3500°W)
Time: 07:41:09
(UTC+00:00)

Tiros 1 despin weight - Pass Details

Date: 04 December 2021
Orbit: 592 x 641 km, 48.2° (Epoch: 19 January)

Event Time Altitude Azimuth Distance (km) Brightness Sun altitude
Rises 13:40:15 0° 222° (SW) 2,829 ? 10.1°
Reaches altitude 10° 13:42:54 10° 207° (SSW) 1,924 ? 9.9°
Maximum altitude 13:46:20 23° 156° (SSE) 1,290 ? 9.7°
Drops below altitude 10° 13:49:47 10° 104° (ESE) 1,923 ? 9.5°
Sets 13:52:25 0° 90° (E) 2,827 ? 9.3°
